[Iaude] MPEC L49: 2024 KG2 [a=6.11,e=0.64,i=87.4,H=17.5]

mpec at cfa.harvard.edu mpec at cfa.harvard.edu
Tue Jun 4 11:36:16 EDT 2024


M.P.E.C. 2024-L49                                  Issued 2024 June 4, 15:34 UT

     The Minor Planet Electronic Circulars contain information on unusual
         minor planets, routine data on comets and natural satellites,
         and occasional editorial announcements.  They are published
    on behalf of Division F of the International Astronomical Union by the
          Minor Planet Center, Smithsonian Astrophysical Observatory,
                          Cambridge, MA 02138, U.S.A.
			  
             Prepared using the Tamkin Foundation Computer Network

                              MPC at CFA.HARVARD.EDU
            URL https://www.minorplanetcenter.net/    ISSN 1523-6714

                                    2024 KG2                                    


Observations:
     K24K02G 1C2024 05 19.36243 16 51 48.42 -13 43 15.3          19.9 GVEL049G96
     K24K02G 1C2024 05 19.36767 16 51 47.51 -13 43 22.7          20.4 GVEL049G96
     K24K02G 1C2024 05 19.37291 16 51 46.59 -13 43 31.5          20.7 GVEL049G96
     K24K02G  C2024 05 30.41652816 16 45.247-18 54 26.51         20.30GVEL049F51
     K24K02G  C2024 05 30.43078916 16 42.278-18 54 50.62         19.52GVEL049F51
     K24K02G  C2024 05 30.43816816 16 40.768-18 55 03.57         20.19GVEL049F51
     K24K02G*KB2024 05 30.90360 16 15 05.923-19 08 10.07         19.4 GXEL049L87
     K24K02G KB2024 05 30.91037 16 15 04.464-19 08 22.13         18.8 GXEL049L87
     K24K02G KB2024 05 30.91712 16 15 02.998-19 08 34.19               XEL049L87
     K24K02G KC2024 05 31.22523016 14 00.006-19 17 20.58         20.06GVEL049I52
     K24K02G KC2024 05 31.22730916 13 59.596-19 17 24.65         20.11GVEL049I52
     K24K02G KC2024 05 31.22938516 13 59.164-19 17 28.93         20.32GVEL049I52
     K24K02G  C2024 05 31.24917016 13 54.81 -19 17 55.8                WEL049X09
     K24K02G  C2024 05 31.25848516 13 52.82 -19 18 12.0                WEL049X09
     K24K02G  C2024 05 31.28989316 13 46.33 -19 19 03.8                WEL049X09
     K24K02G  C2024 05 31.31662216 13 40.78 -19 19 49.6                WEL049X09
     K24K02G KB2024 06 01.83650 16 08 27.782-20 02 37.50         19.8 GXEL049L87
     K24K02G KB2024 06 01.84148 16 08 26.741-20 02 46.07         19.5 GXEL049L87
     K24K02G KB2024 06 01.84632 16 08 25.685-20 02 54.53         19.7 GXEL049L87
     K24K02G KB2024 06 01.92688016 08 08.86 -20 05 16.8          20.2 GXEL049I93
     K24K02G KB2024 06 01.93338716 08 07.54 -20 05 27.3          20.5 GXEL049I93
     K24K02G KC2024 06 02.22410116 07 07.19 -20 13 34.9          21.2 GXEL049858
     K24K02G KC2024 06 02.23449516 07 04.99 -20 13 52.2          20.3 GXEL049858
     K24K02G  C2024 06 02.43589916 06 22.978-20 19 28.63         20.52wXEL049F51
     K24K02G  C2024 06 02.45187516 06 19.619-20 19 55.32         20.46wXEL049F51
     K24K02G  C2024 06 02.45967716 06 17.970-20 20 08.42         20.60wXEL049F51
     K24K02G KC2024 06 03.19139016 03 45.71 -20 40 31.5          19.8 GVEL049H21
     K24K02G KC2024 06 03.20560916 03 42.69 -20 40 54.9          20.8 GVEL049H21
     K24K02G KC2024 06 03.20759616 03 42.30 -20 40 58.4          21.0 GVEL049H21
     K24K02G !C2024 06 03.34983 16 03 12.45 -20 44 54.4          20.0 GVEL049673
     K24K02G !C2024 06 03.35464 16 03 11.38 -20 45 02.7                VEL049673
     K24K02G KB2024 06 04.13730916 00 27.779-21 06 33.01         20.2 VZEL049Y05
     K24K02G KB2024 06 04.14256016 00 26.703-21 06 41.99         20.0 VZEL049Y05
     K24K02G KB2024 06 04.14788516 00 25.540-21 06 50.52         19.6 VZEL049Y05

Observer details:
673 Table Mountain Observatory, Wrightwood.  Observer J. Pittichova.  1.0-m
    f/15 reflector + CCD.
858 Tebbutt Observatory, Edgewood.  Observer F. B. Zoltowski.  0.51-m f/8.1
    Schmidt-Cassegrain + CCD.
F51 Pan-STARRS 1, Haleakala.  Observers J. Herman, T. Lowe, P. Minguez, A.
    Schultz, I. Smith.  Measurers K. Chambers, T. de Boer, J. Fairlamb, H.
    Gao, M. Huber, C.-C. Lin, E. Magnier, Y. Ramanjooloo, R. Wainscoat, R.
    Weryk.  1.8-m Ritchey-Chretien + CCD.
G96 Mt. Lemmon Survey.  Observer V. F. Carvajal.  Measurers B. Gray, D.
    Rankin, F. C. Shelly.  1.5-m reflector + 10K CCD.
H21 Astronomical Research Observatory, Westfield.  Observer R. Holmes.
    Measurers T. Linder, R. Holmes, L. Horn.  0.81-m f/4.0 astrograph + CCD.
I52 Steward Observatory, Mt. Lemmon Station.  Observer V. F. Carvajal.
    Measurers T. Beuden, V. F. Carvajal, D. Fay, J. B. Fazekas, D. C. Fuls, A.
    R. Gibbs, A. D. Grauer, H. Groeller, J. K. Hogan, R. A. Kowalski, S. M.
    Larson, G. J. Leonard, D. Rankin, R. L. Seaman, F. C. Shelly, K. W.
    Wierzchos.  1.0-m prime focus + CCD.
I93 St Pardon de Conques.  Observer F. Losse.  0.40-m f/3.7 reflector + CMO.
L87 Moonbase South Observatory, Hakos.  Observer G. Duszanowicz.  0.28-m f/1.9
    reflector + CMO.
X09 Deep Random Survey, Rio Hurtado.  Observers A. Schnabel, D. Ruhela.
    Measurer S. Deen.  0.43-m reflector + CMOS.
Y05 SONEAR Wykrota-CEAMIG, Serra da Piedade.  Observers C. Jacques, A.
    Caetano, E. Pimentel.  Measurer C. Jacques.  0.45-m f/2.9 reflector + CMO.

Orbital elements:
2024 KG2                                                                        
Epoch 2024 Mar. 31.0 TT = JDT 2460400.5                 Bell                    
M 350.66592              (2000.0)            P               Q                  
n   0.06529239     Peri.  209.17987     -0.31784165     +0.22466247             
a   6.1079340      Node    67.22954     -0.55260571     +0.74555936             
e   0.6381815      Incl.   87.43986     -0.77045676     -0.62742969             
P  15.1            H   17.57          G   0.15           U   9                  
Residuals in seconds of arc
240519 G96 (0.2-  1.1-)   240531 X09  0.3+  0.1-    240602 F51  0.2+  0.1+
240519 G96  0.0   0.1+    240531 X09  0.5-  0.6-    240602 F51  0.1+  0.0
240519 G96  0.0   0.1-    240531 X09  0.2-  0.7+    240603 H21  0.0   0.2-
240530 F51  0.1+  0.1-    240531 X09  0.4-  0.0     240603 H21  0.2-  0.1+
240530 F51  0.2-  0.0     240601 L87  0.4+  0.4+    240603 H21  0.1+  0.1-
240530 F51  0.0   0.4-    240601 L87  0.4+  0.3+    240603 673  0.0   0.0
240530 L87  0.9+  0.1-    240601 L87  0.2-  0.0     240603 673  0.8-  0.3-
240530 L87  0.1+  0.7-    240601 I93  0.2-  0.3-    240604 Y05  0.2-  0.4+
240530 L87  0.8-  1.3-    240601 I93  0.4+  0.1+    240604 Y05  0.3+  0.0
240531 I52  0.3-  0.9+    240602 858  0.1+  0.0     240604 Y05  0.2-  0.3+
240531 I52  0.0   0.4+    240602 858  0.1-  0.1+
240531 I52  0.0   0.3-    240602 F51  0.1+  0.1+

Ephemeris:
2024 KG2                 a,e,i = 6.11, 0.64, 87                  q = 2.2100
Date    TT    R. A. (2000) Decl.     Delta      r    Elong.  Phase     V
2024 05 05    17 26 46.6 -07 51 31   1.5546  2.4198   140.5    15.4    21.3
...
2024 05 20    16 49 57.3 -14 00 33   1.3792  2.3683   164.0     6.8    20.6
...
2024 05 28    16 24 52.3 -17 45 36   1.3313  2.3433   176.1     1.7    20.3
...
2024 06 03    16 04 25.7 -20 35 05   1.3193  2.3258   170.5     4.1    20.4
2024 06 04    16 00 56.8 -21 02 45   1.3194  2.3230   168.9     4.8    20.4
2024 06 05    15 57 27.3 -21 30 09   1.3200  2.3203   167.2     5.6    20.5
...
2024 06 11    15 36 31.4 -24 07 29   1.3357  2.3042   156.9    10.0    20.7
...
2024 06 19    15 09 48.4 -27 12 39   1.3860  2.2847   143.6    15.3    20.9
...
2024 07 04    14 28 17.1 -31 38 30   1.5505  2.2538   121.4    22.7    21.4

M. P. C. Staff               (C) Copyright 2024 MPC           M.P.E.C. 2024-L49





More information about the Iaude mailing list